NEXUS (FO-99) (43937 NORAD) Tracking and Keplerian Element Data

This shows tracking and keplerian element data for the satellite.

Feedback or suggestion? Click here.




ElementValue
Catalog43937
NameNEXUS (FO-99)
Epoch Orbit14961
Epoch Day269.10911053
Epoch Year2021
RAAN308.2368
Inclination97.1672
Eccentricity0.0023304
Argument of Perigee19.9428
Mean Anonmoly340.2717
Mean Motion15.26248505
Decay Rate4.151E-05
L11 43937U 19003F 21269.10911053 .00004151 00000-0 16173-3 0 9991
L22 43937 97.1672 308.2368 0023304 19.9428 340.2717 15.26248505149618

Live tracking and technical data element details for NEXUS (FO-99) (NORAD 43937). NEXUS (FO-99) can be tracked NOW for your location showing map with azimuth and elevation plus other details from your city location.

Track the satellite on the map from your city or location and see movement details for azimuth, elevation, latitude, longitude, range, height, and movement on the map or in text.







IsCatalogInMostPopularTable: catalog: 43937, numindb: 546
Update: records affected: 1



GetName: 43937 NEXUS (FO-99)

Hit Count: updated at: Mon, 27 Sep 2021 01:27:42 GMT